This demonstration page uses our WeatherBlox Daily Observations layout. Learn more.

Hourly Observations for January 10, 2017

Temp ( °F °C ) Dew Point ( °F °C ) Humidity (%) Winds ( mph kmh ) Pressure ( in mb ) Visibility ( mi km ) Precip ( " mm )
12:54 am 00:54 Clear 30 -1.1 27 -2.8 88 88 S 3 6 29.49 999 10 16.0934 0 0
1:54 am 01:54 Clear 27 -2.8 25 -3.9 92 92 NW 3 6 29.44 997 10 16.0934 0 0
2:54 am 02:54 Clear 29 -1.7 26 -3.3 89 89 Calm 29.42 996 10 16.0934 0 0
3:54 am 03:54 Clear 29 -1.7 26 -3.3 89 89 NNW 6 9 29.39 995 10 16.0934 0 0
4:54 am 04:54 Mostly Cloudy 30 -1.1 27 -2.8 88 88 Calm 29.4 996 10 16.0934 0 0
5:54 am 05:54 Cloudy with Light Rain 33 0.6 31 -0.6 92 92 Calm 29.39 995 6 9.65604 0.01 0.254
6:54 am 06:54 Cloudy with Light Rain 34 1.1 31 -0.6 89 89 WNW 12 19 29.46 998 10 16.0934 0.02 0.508
7:29 am 07:29 Mostly Cloudy 36 2.2 31 -0.6 82 82 NNW 26 43 29.53 1000 10 16.0934 0.001 0.001
7:54 am 07:54 Partly Cloudy 31 -0.6 24 -4.4 76 76 NNW 28 44 29.54 1001 10 16.0934 0.001 0.001
8:54 am 08:54 Cloudy 28 -2.2 21 -6.1 75 75 NW 22 35 29.65 1004 10 16.0934 0 0
9:54 am 09:54 Mostly Cloudy 26 -3.3 18 -7.8 71 71 NW 25 41 29.72 1006 10 16.0934 0 0
10:54 am 10:54 Sunny 27 -2.8 17 -8.3 66 66 NW 25 41 29.8 1009 10 16.0934 0 0
11:54 am 11:54 Sunny 28 -2.2 18 -7.8 66 66 WNW 16 26 29.8 1009 10 16.0934 0 0
12:54 pm 12:54 Sunny 30 -1.1 20 -6.7 66 66 WNW 20 31 29.84 1011 10 16.0934 0 0
1:54 pm 13:54 Sunny 34 1.1 21 -6.1 59 59 WNW 12 19 29.85 1011 10 16.0934 0 0
2:54 pm 14:54 Sunny 36 2.2 22 -5.6 57 57 WNW 10 17 29.86 1011 10 16.0934 0 0
3:54 pm 15:54 Sunny 37 2.8 23 -5 57 57 WNW 6 9 29.88 1012 10 16.0934 0 0
4:54 pm 16:54 Sunny 34 1.1 23 -5 64 64 Calm 29.88 1012 10 16.0934 0 0
5:54 pm 17:54 Clear 26 -3.3 20 -6.7 78 78 SSE 8 13 29.89 1012 10 16.0934 0 0
6:54 pm 18:54 Clear 29 -1.7 22 -5.6 75 75 S 5 7 29.92 1013 10 16.0934 0 0
7:54 pm 19:54 Mostly Cloudy 30 -1.1 23 -5 75 75 SE 3 6 29.93 1013 10 16.0934 0 0
8:54 pm 20:54 Clear 23 -5 20 -6.7 88 88 SE 7 11 29.91 1013 10 16.0934 0 0
9:54 pm 21:54 Clear 30 -1.1 24 -4.4 79 79 E 3 6 29.86 1011 10 16.0934 0 0
10:54 pm 22:54 Clear 29 -1.7 24 -4.4 82 82 SE 8 13 29.82 1010 10 16.0934 0 0
11:54 pm 23:54 Clear 28 -2.2 23 -5 81 81 SSE 6 9 29.79 1009 10 16.0934 0 0

Powered by AerisWeather